Weather History for Ashtabula, OH

Change the Weather History Date:

Thursday, December 6, 2012

  Actual Average (KYNG) Record (KYNG)
Temperature  
Mean Temperature 33 °F 33 °F  
Max Temperature 42 °F 40 °F 69 °F (1998)
Min Temperature 24 °F 27 °F 8 °F (1977)
Degree Days  
Heating Degree Days 32 32  
Month to date heating degree days 184  
Since 1 July heating degree days 1513  
Cooling Degree Days 0 0  
Month to date cooling degree days 0  
Year to date cooling degree days 544  
Moisture  
Dew Point 22 °F    
Average Humidity 65    
Maximum Humidity 81    
Minimum Humidity 47    
Precipitation  
Precipitation 0.00 in 0.10 in 1.11 in (1971)
Month to date precipitation 0.60  
Year to date precipitation 36.52  
Snow  
Snow 0.00 in 0.40 in - ()
Month to date snowfall 2.4  
Since 1 July snowfall 6.8  
Snow Depth -    
Sea Level Pressure  
Sea Level Pressure 30.21 in    
Wind  
Wind Speed 4 mph (SSE)    
Max Wind Speed 12 mph    
Max Gust Speed -    
Visibility 10 miles    
Events      
T = Trace of Precipitation, MM = Missing Value Source: NWS Daily Summary

Daily Weather History Graph

Daily Weather History Graph

Search for Another Location

Airport:

Trip Planner

Search our weather history database for the weather conditions in past years. The results will help you decide how hot, cold, wet, or windy it might be!

Date:

Astronomy

Dec. 06, 2012 Rise Set
Actual Time 7:36 AM EST 4:51 PM EST
Civil Twilight 7:04 AM EST 5:23 PM EST
Nautical Twilight 6:29 AM EST 5:58 PM EST
Astronomical Twilight 5:56 AM EST 6:31 PM EST
Moon No Moon Rise 12:22 PM EST (12/6)
Length of Visible Light 10h 18m
Length of Day
9h 15m
Waning Gibbous, 49% of the Moon is Illuminated
Dec 6
Waning Gibbous
Dec 13
New
Dec 20
First Quarter
Dec 28
Full
Jan 4
Last Quarter

Hourly Weather History & Observations

Time (EST) Temp. Windchill Dew Point Humidity Pressure Visibility Wind Dir Wind Speed Gust Speed Precip Events Conditions
12:53 AM 32.0 °F - 21.0 °F 64% 30.39 in 10.0 mi Calm Calm - N/A   Overcast
1:53 AM 30.0 °F 25.2 °F 21.0 °F 69% 30.37 in 10.0 mi East 4.6 mph - N/A   Partly Cloudy
2:53 AM 28.0 °F 24.2 °F 21.0 °F 75% 30.36 in 10.0 mi East 3.5 mph - N/A   Clear
3:53 AM 27.0 °F - 19.9 °F 75% 30.36 in 10.0 mi Calm Calm - N/A   Clear
4:53 AM 25.0 °F 20.7 °F 19.9 °F 81% 30.35 in 10.0 mi ESE 3.5 mph - N/A   Clear
5:53 AM 24.1 °F 19.7 °F 19.0 °F 81% 30.36 in 10.0 mi SE 3.5 mph - N/A   Clear
6:53 AM 26.1 °F 18.4 °F 19.9 °F 78% 30.33 in 10.0 mi ESE 6.9 mph - N/A   Clear
7:53 AM 25.0 °F 20.7 °F 19.0 °F 78% 30.32 in 10.0 mi SE 3.5 mph - N/A   Clear
8:53 AM 28.0 °F 22.8 °F 21.0 °F 75% 30.31 in 10.0 mi SSE 4.6 mph - N/A   Clear
9:53 AM 30.0 °F 22.4 °F 21.0 °F 69% 30.30 in 10.0 mi South 8.1 mph - N/A   Clear
10:53 AM 33.1 °F 25.5 °F 21.9 °F 64% 30.27 in 10.0 mi SSE 9.2 mph - N/A   Clear
11:53 AM 36.0 °F 28.5 °F 21.9 °F 57% 30.22 in 10.0 mi SE 10.4 mph - N/A   Clear
12:53 PM 39.0 °F 32.8 °F 24.1 °F 55% 30.17 in 10.0 mi SSE 9.2 mph - N/A   Clear
1:53 PM 41.0 °F 35.8 °F 23.0 °F 49% 30.14 in 10.0 mi South 8.1 mph - N/A   Clear
2:53 PM 42.1 °F 35.7 °F 23.0 °F 47% 30.12 in 10.0 mi South 11.5 mph - N/A   Clear
3:53 PM 42.1 °F 37.7 °F 23.0 °F 47% 30.10 in 10.0 mi SSE 6.9 mph - N/A   Clear
4:53 PM 39.9 °F 37.8 °F 25.0 °F 55% 30.12 in 10.0 mi WSW 3.5 mph - N/A   Clear
5:53 PM 37.9 °F - 24.1 °F 57% 30.11 in 10.0 mi Calm Calm - N/A   Clear
6:53 PM 35.1 °F - 26.1 °F 70% 30.10 in 10.0 mi Calm Calm - N/A   Clear
7:53 PM 34.0 °F 29.8 °F 27.0 °F 75% 30.10 in 10.0 mi SSE 4.6 mph - N/A   Clear
8:53 PM 37.0 °F 32.4 °F 24.1 °F 59% 30.08 in 10.0 mi South 5.8 mph - N/A   Clear
9:53 PM 37.0 °F 32.4 °F 24.1 °F 59% 30.07 in 10.0 mi South 5.8 mph - N/A   Clear
10:53 PM 37.0 °F - 24.1 °F 59% 30.05 in 10.0 mi Calm Calm - N/A   Clear
11:53 PM 37.0 °F 32.4 °F 24.1 °F 59% 30.03 in 10.0 mi SSE 5.8 mph - N/A   Clear